Showing default

CFOSAT, 43662

Orbit data source: Space-Track

CFOSAT, 43662 is a Chinese payload satellite in SSO that was launched on Mon, 29 Oct 2018 UTC via a CHANG ZHENG 2C launch vehicle from the Jiuquan Satellite Launch Center, China (JSC). Payload-class satellites include a variety of spacecraft equipped with specific instruments for various scientific and technological missions. These include communications satellites like Starlink; space stations such as the ISS; scientific satellites like the Hubble; Earth observation satellites from companies like Planet Labs, Umbra, and HawkEye 360; GPS; miniature CubeSats for education and research; and military/defense satellites.

Loading next visibility...
Identifier
43662, 2018-083A
Orbit
SSO
Country
Flag of CNCN / PRC
Related business
Manufacturer
DFH
Mission
Operational Civil Science
Bus & Motor
CAST-2000, Unknown motor
Mass
700 kg wet, 700 kg dry
Launch date (UTC)
2018-10-29 (7 years ago)
Launch vehicle
CHANG ZHENG 2C
Launch site
Jiuquan Satellite Launch Center, China (JSC)
Object type
Payload
Rocket body
Debris
Shape & HBR
Box + 2 Pan, 5.0 m
Radar Cross Section
5.252 m², Large (>1 m²)

Expand to show TLE details & history
Last TLE update: 19 hours ago

TLE from 19 hours ago
0 CFOSAT
1 43662U 18083A   25260.30305090  .00004185  00000-0  21908-3 0  9997
2 43662  97.3653 267.8552 0001037  76.7026 283.4323 15.16350553381089
Epoch: 2025-09-17T07:16Z
TLE epoch observation values (Epoch: 2025-09-17T07:16:23.597Z)
Latitude
-0.00003°
Longitude
162.27594°
Altitude
519.802 km
Speed
7.604 km/s
True Right ascension
17h 51m 25s
True Declination
0° 00' 00"
Sunlit
Object was in daylight at epoch
Visualization orbit readout
Latitude
Unknown
Longitude
Unknown
Altitude
Unknown
Speed
Unknown
Apparent Right ascension
Unknown
Apparent Declination
Unknown
Sunlit
N/A
Visualization observer readout
Local Sidereal Time
18:46:53
Azimuth
Unknown
Elevation
Unknown
Doppler factor
Unknown
Orbital elements
Apogee altitude
514.565 km
Perigee altitude
513.136 km
Semi-major axis
6,891.987 km
Eccentricity
0.0001
Inclination
97.3653°
RAAN
267.8552°
Arg. of periapsis
76.7026°
True anomaly
283.42074°
Mean anomaly
283.4323°
Eccentric anomaly
283.42652°
Mean motion
3.79338 °/min
Orbital period
94.9 mins
BSTAR
0.00021908
Loading maneuver chart data...
Computing Atmospheric mass density...
Loading historical data...
Loading historical data...
Loading historical data...
Loading historical data...
Loading historical data...
Loading historical data...
Loading historical data...

Documentation

Showing up to 5 results
|